sat.trackr.live / text

‹ back to catalog

NEE-01 PEGASO

NORAD 39151 · 2013-018B

PAYLOAD ACTIVE UNKNOWN

§ Identity

Operator
Country
ECU
Launch date
2013-04-26
Launch site
JSC
Launch vehicle
Mass (kg)
RCS (m²)
0.02

Purposes: tech_demo

External: N2YO · Heavens-Above · Gunter

§ Orbital elements

Epoch: 2026-09-19T08:59:49.895520Z

Period
96.38 min
Inclination
98.1360°
Eccentricity
0.0011740
Mean motion
14.94039522 rev/d
Perigee alt
577.2 km
Apogee alt
593.5 km
Semi-major
6,963.5 km
B*
1.8282e-4
RAAN
49.7412°
Arg perigee
208.4985°
Mean anomaly
151.5593°
Rev number
72,476

§ Raw data

NEE-01 PEGASO1 39151U 13018B   26262.37488305  .00001891  00000+0  18282-3 0  99902 39151  98.1360  49.7412 0011740 208.4985 151.5593 14.94039522724768

JSON: /api/v1/satellites/39151 · /tle

For live sub-satellite position, see the globe view (requires WebGL).

§ Visibility from observer

Set your observer location to see the next 7 days of passes ≥ 10°. The values pass through the URL so the page stays shareable.

No JS? Fill the form by hand. The geolocation button needs JavaScript.

§ Radio — SatNOGS DB

ModeDescriptionDownlinkUplink
FM Downlink 910.000 MHz

1 transmitter · refreshed weekly from db.satnogs.org